greek

ΠΛΗΡΟΦΟΡΙΕΣ ΚΑΙΡΟΥ

english


LGTT 201330Z 03013KT 340V070 CAVOK 30/08 Q1016
TAF LGTT 201000Z 2012/2021 36015KT 9999 SCT030 TEMPO 2012/2016 36017G30KT

 Print LGTT local weather
 EMY AVIATION
 EMY LGTT
 Forecast LGTT
 EMY LGMG
 EMY LGEL
 EMY LGTG
 EMY LGAV
 EMY LGAT
 Latest METAR Reports (OGIMET)
 Latest TAF Reports (OGIMET)
 Greece Forecast
 www.windyty.com
 www.meteo.gr
 SAT 24h
 UK Met Office
 www.kifissiameteo.gr
 forecast.uoa.gr
 www.ntua.gr/weather/
 www.autorouter.eu/gramet
 http://www.jetplan.com/jeppesen/

Στο τηλέφωνο 210-3533689 μπορείτε να πάρετε πληροφορίες για την πτήση σας σε οποιοδήποτε σημείο της χώρας.